Regional Weather Roundup
Issued by NWS Green Bay, WI

Home | Current Version | Previous Version | Graphics & Text | Print | Product List | Glossary Off
Versions: 1 2 3 4 5 6 7 8 9 10 11 12 13 14 15 16 17 18 19 20 21 22 23 24 25 26 27 28 29 30 31 32 33 34 35 36 37 38 39 40 41 42 43 44 45 46 47 48 49 50

000
ASUS43 KGRB 232111
RWRGRB

NORTH-CENTRAL AND NORTHEAST WISCONSIN REGIONAL WEATHER ROUNDUP
NATIONAL WEATHER SERVICE GREEN BAY WI
400 PM CDT TUE MAY 23 2017

WIZ005-009-010>012-018-019-232200-
NORTH CENTRAL WISCONSIN

CITY           SKY/WX    TMP DP  RH WIND       PRES   REMARKS
IRONWOOD       PTSUNNY   54  45  71 N9        29.85R
MANITOWISH WTR CLOUDY    54  46  74 NE5       29.81S
ARBOR VITAE    CLOUDY    57  47  68 NE6       29.81S
EAGLE RIVER    CLOUDY    56  41  58 N7        29.80S
LAND O LAKES   CLOUDY    55  44  66 N7        29.83S
RHINELANDER    CLOUDY    58  44  60 NE7       29.79F
PHILLIPS       CLOUDY    55  42  62 E6        29.80S
ANTIGO         CLOUDY    55  45  70 NE13      29.79S
TOMAHAWK       CLOUDY    56  45  64 N6        29.79S
MERRILL        CLOUDY    58  46  64 E5        29.78S
$$

WIZ013-073-232200-
NORTHEAST WISCONSIN

CITY           SKY/WX    TMP DP  RH WIND       PRES   REMARKS
IRON MOUNTAIN  CLOUDY    57  43  59 E3        29.78F
MARINETTE      LGT RAIN  51  47  86 NE8       29.80F
OCONTO         CLOUDY    52  44  74 NE8       29.79S
$$

WIZ017-030-035>037-045-232200-
CENTRAL WISCONSIN

CITY           SKY/WX    TMP DP  RH WIND       PRES   REMARKS
MEDFORD        CLOUDY    55  45  69 NE10      29.77S
WAUSAU         CLOUDY    57  43  59 E10       29.75F
MOSINEE        CLOUDY    57  46  67 E16       29.77S
MARSHFIELD     CLOUDY    58  45  62 NE14      29.74S
WISC RAPIDS    CLOUDY    58  46  64 E12G22    29.75S
STEVENS POINT  CLOUDY    56  45  67 NE15      29.76S
WAUPACA        CLOUDY    57  47  71 NE8       29.76F
SHAWANO        CLOUDY    56  48  75 E10       29.79S
CLINTONVILLE   CLOUDY    54  45  71 NE10      29.78S
WAUTOMA        CLOUDY    56  49  77 E14         N/A
$$

WIZ038-039-048-051-232200-
FOX VALLEY

CITY           SKY/WX    TMP DP  RH WIND       PRES   REMARKS
NWS GREEN BAY  HVY RAIN  52  51  97 NE14      29.79R FOG
APPLETON       LGT RAIN  52  50  93 NE15G21   29.75S
OSHKOSH        CLOUDY    53  50  89 NE13      29.74R
FOND DU LAC    RAIN      54  51  90 NE10      29.73S FOG
$$

WIZ022-050-052-232200-
EAST CENTRAL WISCONSIN

CITY           SKY/WX    TMP DP  RH WIND       PRES   REMARKS
EPHRAIM        CLOUDY    48  48 100 N3        29.78F
WASHINGTON ISL CLOUDY    50  46  84 N3        29.79S
STURGEON BAY   CLOUDY    53  44  71 NE10      29.79F
MANITOWOC      RAIN      48  45  89 N6        29.77F
SHEBOYGAN      CLOUDY    50  50 100 NE9       29.74S FOG
$$

LMZ563-521-522-541>543-232200-
LAKESHORE

STATION/POSITION TIME  TEMP    WIND        PRES    VSBY  WAVE
                       AIR SEA DIR/SP/G                  HT/PER
                 (UTC) (F)     (DEG/KT/KT) (MB)    (MI)  (FT/S)
SHEBOYGAN LKSHOR 2100   45      10/ 14/ 17 1007.4F
KEWAUNEE LKSHORE 2048   47      30/  8/ 12 1008.2F
NORTHPORT PIER   2040   50     320/  6/  7 1009.1S
N MID LAKE BUOY  2050   43 39  350/  4/  4 1009.7F         0
CHAMBERS ISLAND  2040   49      30/  8/ 10 1008.5F
MENOMINEE LKSHOR 2048           10/ 10/ 11 1008.2F
$$




USA.gov is the U.S. government's official web portal to all federal, state and local government web resources and services.